Location: Canet
(43.3261°N, 5.3723°E)
Time: 23:12:54
(UTC+00:00)

Envisat - Pass Details

Date: 04 October 2021
Orbit: 764 x 766 km, 98.2° (Epoch: 20 October)

Event Time Altitude Azimuth Distance (km) Brightness Sun altitude
Rises 03:23:45 0° 33° (NNE) 3,239 7.0 -25.2°
Reaches altitude 10° 03:27:22 10° 60° (ENE) 2,306 6.5 -24.5°
Maximum altitude 03:29:48 13° 89° (E) 2,071 6.1 -24.1°
Drops below altitude 10° 03:32:13 10° 118° (ESE) 2,297 6.0 -23.7°
Sets 03:35:47 0° 144° (SE) 3,217 6.5 -23.1°
